Lid_Strength_Index
4 4 4 4 4 4 4 4 4 3 3 3 3 3 3 3 2 3 6 4 3 -2 -1 1 2 2 3 5 5 4 10 12 11 11 10 7 9 6 5 7 5 5 5 4 2
4 4 4 4 4 4 4 4 4 4 4 4 3 3 3 2 5 5 1 -2 -2 -1 5 4 6 5 7 8 6 7 11 10 7 7 9 7 8 7 7 7 7 6 4 3 3
4 4 4 4 4 4 4 4 4 4 4 4 4 3 3 3 8 9 -3 -2 -1 -1 5 6 8 8 10 9 7 7 10 7 7 6 6 7 7 6 8 9 7 8 6 4 4
4 4 4 4 4 4 4 4 4 4 4 4 4 3 3 5 12 7 -2 -1 -1 0 6 8 9 10 10 10 9 9 6 6 6 6 6 8 6 8 7 7 5 5 4 4 4
5 5 4 4 4 4 4 4 4 5 5 4 4 4 6 10 9 6 -3 -1 0 2 7 9 10 9 9 9 8 10 9 6 6 6 6 6 7 8 7 5 4 4 4 5 4
5 4 4 4 4 4 4 4 4 5 4 4 4 4 9 12 6 6 1 1 2 5 7 8 8 8 8 9 10 9 7 7 6 6 7 8 8 7 7 5 5 5 5 5 4
5 5 5 4 4 4 4 4 5 5 4 3 4 4 8 9 6 5 6 4 4 6 8 8 8 9 9 9 8 6 8 7 7 7 8 6 10 9 6 5 6 6 5 5 4
5 5 5 5 5 4 4 5 5 4 2 3 3 5 10 5 5 3 6 7 6 6 7 8 8 10 9 8 7 9 9 12 8 7 7 8 13 8 6 6 7 6 6 5 4
5 5 5 4 4 5 5 5 4 3 3 3 6 7 8 2 5 4 6 7 7 7 7 6 8 10 10 10 11 11 13 12 11 7 8 9 12 8 6 7 7 7 6 5 5
5 5 5 5 5 5 6 5 5 4 3 2 3 7 7 7 6 5 6 6 8 8 8 10 12 12 12 11 15 13 12 12 12 9 9 10 11 9 7 7 7 7 6 6 5
5 5 5 5 5 6 7 10 10 10 7 8 8 7 6 6 4 5 6 7 9 11 13 12 13 14 12 11 9 10 11 11 10 8 10 11 11 10 8 7 8 7 7 6 5
5 5 5 5 6 6 9 12 10 10 13 9 8 8 6 6 7 6 6 8 10 12 12 13 14 12 10 10 10 10 12 11 10 8 9 11 11 9 8 8 7 7 7 6 5
5 5 5 6 6 8 11 12 9 10 14 10 9 8 8 7 8 7 6 8 10 12 13 14 13 10 9 11 11 13 13 14 10 10 10 11 13 11 9 7 7 6 6 5 5
6 5 6 6 11 10 11 10 10 10 14 11 10 7 7 6 9 5 5 7 10 11 12 13 11 10 10 10 10 13 11 11 10 12 15 10 17 13 10 10 8 7 6 6 5
6 6 6 7 10 11 10 9 10 11 18 9 9 5 8 9 9 7 5 8 10 11 12 13 12 11 11 10 10 11 10 11 10 12 13 14 15 13 10 11 9 8 6 6 5
6 6 7 8 10 9 8 9 11 14 17 10 7 9 9 9 8 8 7 7 7 10 12 11 10 10 10 9 8 9 12 13 13 12 17 13 14 14 13 11 9 7 6 6 5
7 7 8 8 12 10 10 11 15 17 11 11 11 10 10 10 9 9 9 11 11 13 14 12 12 11 9 11 10 12 14 17 17 17 17 13 15 12 9 8 8 8 7 6 5
8 8 9 8 9 9 12 15 18 13 12 10 10 10 12 11 10 9 11 12 11 12 13 15 15 11 10 11 12 13 13 16 19 18 16 13 17 12 7 6 6 6 6 5 5
8 11 11 10 8 11 14 19 17 13 9 10 10 12 12 11 10 10 12 12 10 11 13 14 14 10 10 10 10 13 15 13 17 18 17 15 13 10 9 8 7 7 6 6 5
10 12 13 8 8 12 16 18 16 10 9 11 13 11 14 13 12 12 13 10 11 9 10 11 15 11 9 9 10 11 11 14 17 19 19 16 14 13 11 9 8 8 7 6 5
13 16 13 8 11 14 18 18 14 11 10 11 11 12 12 14 12 13 12 10 9 9 10 12 13 12 10 11 11 12 14 15 15 16 18 18 15 11 10 8 8 7 6 6 5
13 18 11 10 13 16 17 15 11 11 10 10 10 11 12 12 14 13 12 10 8 9 12 12 12 13 12 10 9 10 12 13 14 17 17 16 15 9 8 8 7 7 6 6 5
14 15 10 11 16 15 13 11 11 10 9 9 10 11 11 11 13 12 12 9 8 9 11 12 15 15 14 13 11 12 12 13 14 15 16 16 14 9 9 7 7 7 6 6 5
13 17 13 12 14 15 16 14 12 8 8 8 9 9 11 11 10 12 11 8 7 8 6 7 16 13 14 12 11 12 11 12 13 15 15 14 12 10 8 8 8 7 6 6 6
11 15 13 14 13 13 15 14 12 11 9 8 9 9 10 12 11 11 10 9 7 6 9 13 14 13 10 11 10 10 11 11 12 13 13 11 12 10 8 8 7 7 6 6 6
10 11 11 12 12 14 14 15 11 10 10 10 10 8 9 10 10 11 9 10 10 9 10 13 14 14 12 11 10 11 11 10 11 11 11 11 12 9 7 7 7 7 7 7 6
9 9 9 10 11 14 14 13 11 9 9 8 9 10 10 9 8 8 8 8 8 9 11 13 15 15 14 13 13 14 11 11 11 10 10 12 10 9 8 7 7 7 6 6 6